Location: Kouchibouguac National Park
(46.8081°N, 64.9088°W)
Time: 03:18:53
(UTC-03:00)

Amateur Radio Satellites - All Passes

Search period start: 25 October 2014 02:48
Search period end: 26 October 2014 02:48
Location: Kouchibouguac National Park, 46.8081°N, 64.9088°W

Satellite Date Start Highest point End Downlink Frequencies (MHz)
Time Altitude Azimuth
JAS-1B 25 Oct 02:50:02 02:56:29 55° 101° (ESE) 03:04:09 435.800 - 435.900 CW/SSB
AO-Echo 25 Oct 02:53:57 02:58:54 38° 97° (E) 03:03:49 ?
Oscar 16 25 Oct 02:59:10 03:04:19 74° 103° (ESE) 03:09:26 437.025 USB, Beacon 2401.1428
Sapphire 25 Oct 03:07:21 03:07:59 10° 101° (E) 03:08:38 437.095 MHz 1200 baud AX-25 AFSK
RS-15 25 Oct 03:10:33 03:19:56 31° 353° (N) 03:29:30 29.354 - 29.394 USB, Beacon 29.352 USB
Uribyol 2 25 Oct 03:18:54 03:23:59 49° 100° (E) 03:29:00 436.500 FM
ITAMSAT 1 25 Oct 03:24:56 03:30:04 52° 100° (E) 03:35:08 435.822 SSB
PCSat 25 Oct 03:26:38 03:30:10 18° 105° (ESE) 03:33:42 145.825 MHz
Gurwin Techsat 1B 25 Oct 03:45:15 03:50:21 44° 98° (E) 03:55:24 435.225 FM
Oscar 19 25 Oct 03:52:56 03:57:42 40° 293° (WNW) 04:02:27 437.125 CW, 437.150 USB
OPAL 25 Oct 03:53:15 03:56:11 16° 54° (NE) 03:59:05 ?
TMSAT-1 25 Oct 03:56:27 04:01:30 42° 98° (E) 04:06:30 436.925 FM
AO-27 25 Oct 04:10:37 04:15:49 64° 289° (WNW) 04:20:58 436.795 MHz FM
AO-7 25 Oct 04:23:59 04:30:17 23° 91° (E) 04:36:34 29.400 - 29.500 MHz
AO-Echo 25 Oct 04:32:51 04:37:35 34° 295° (WNW) 04:42:19 ?
Oscar 16 25 Oct 04:39:45 04:43:06 18° 302° (WNW) 04:46:28 437.025 USB, Beacon 2401.1428
Uosat F 25 Oct 04:40:07 04:43:16 16° 90° (E) 04:46:24 435.120 FM
JAS-1B 25 Oct 04:41:20 04:46:57 33° 297° (WNW) 04:53:25 435.800 - 435.900 CW/SSB
Sapphire 25 Oct 04:45:01 04:50:23 69° 119° (ESE) 04:55:47 437.095 MHz 1200 baud AX-25 AFSK
Uribyol 2 25 Oct 04:58:55 05:03:11 26° 298° (WNW) 05:07:25 436.500 FM
ITAMSAT 1 25 Oct 05:05:03 05:09:14 25° 299° (WNW) 05:13:24 435.822 SSB
PCSat 25 Oct 05:07:31 05:12:56 78° 304° (NW) 05:18:24 145.825 MHz
Gurwin Techsat 1B 25 Oct 05:25:36 05:30:08 29° 297° (WNW) 05:34:38 435.225 FM
RS-15 25 Oct 05:25:59 05:36:10 40° 27° (NNE) 05:46:38 29.354 - 29.394 USB, Beacon 29.352 USB
OPAL 25 Oct 05:29:13 05:34:23 89° 69° (ENE) 05:39:30 ?
TMSAT-1 25 Oct 05:36:40 05:41:16 31° 296° (WNW) 05:45:50 436.925 FM
STRAND 1 25 Oct 05:37:54 05:40:44 15° 56° (NE) 05:43:35 ?
AO-27 25 Oct 05:52:49 05:54:20 11° 308° (NW) 05:55:50 436.795 MHz FM
JAS-2 25 Oct 06:07:51 06:15:02 39° 94° (E) 06:22:15 435.800 - 435.900 CW/SSB, 435.910 FM
AO-7 25 Oct 06:15:41 06:24:03 85° 291° (WNW) 06:32:23 29.400 - 29.500 MHz
Uosat F 25 Oct 06:17:32 06:22:35 71° 288° (WNW) 06:27:36 435.120 FM
Sapphire 25 Oct 06:29:47 06:34:18 26° 320° (NW) 06:38:51 437.095 MHz 1200 baud AX-25 AFSK
PCSat 25 Oct 06:53:23 06:57:15 19° 326° (NW) 07:01:08 145.825 MHz
OPAL 25 Oct 07:11:38 07:13:56 13° 270° (W) 07:16:13 ?
STRAND 1 25 Oct 07:14:03 07:19:12 89° 75° (ENE) 07:24:23 ?
Hamsat 25 Oct 07:20:01 07:24:14 89° 104° (ESE) 07:28:27 145.90 MHz
RS-15 25 Oct 07:38:51 07:50:02 90° 235° (SW) 08:01:41 29.354 - 29.394 USB, Beacon 29.352 USB
JAS-2 25 Oct 07:52:45 08:00:11 54° 293° (WNW) 08:07:44 435.800 - 435.900 CW/SSB, 435.910 FM
Uosat F 25 Oct 07:58:43 08:00:28 12° 307° (NW) 08:02:12 435.120 FM
AO-7 25 Oct 08:09:31 08:15:47 25° 312° (NW) 08:22:03 29.400 - 29.500 MHz
Saudisat 1A 25 Oct 08:15:04 08:19:20 54° 122° (ESE) 08:23:39 436.775 MHz
SO-67 25 Oct 08:22:37 08:26:03 62° 101° (E) 08:29:28 435.3500 MHz FM
MaSat-1 25 Oct 08:27:55 08:29:13 13° 46° (NE) 08:30:27 437.345 MHz
HO-68 25 Oct 08:41:30 08:44:37 13° 84° (E) 08:47:43 435.675 MHz FM
STRAND 1 25 Oct 08:56:52 08:59:07 13° 273° (W) 09:01:22 ?
Hamsat 25 Oct 08:58:19 08:59:31 11° 301° (WNW) 09:00:44 145.90 MHz
JAS-2 25 Oct 09:39:53 09:43:39 15° 313° (NW) 09:47:28 435.800 - 435.900 CW/SSB, 435.910 FM
RS-15 25 Oct 09:52:20 10:01:00 27° 257° (WSW) 10:09:58 29.354 - 29.394 USB, Beacon 29.352 USB
Saudisat 1A 25 Oct 09:55:28 09:59:11 26° 322° (NW) 10:02:55 436.775 MHz
SO-67 25 Oct 09:57:47 09:58:32 11° 298° (WNW) 09:59:18 435.3500 MHz FM
MaSat-1 25 Oct 10:02:38 10:05:00 29° 248° (WSW) 10:07:12 437.345 MHz
HO-68 25 Oct 10:26:25 10:33:38 70° 104° (ESE) 10:40:47 435.675 MHz FM
PCSat 25 Oct 10:27:41 10:29:15 11° 19° (NNE) 10:30:49 145.825 MHz
ZACube-1 25 Oct 10:28:23 10:30:07 12° 88° (E) 10:31:50 437.345 MHz
UKube-1 25 Oct 10:31:11 10:35:06 31° 96° (E) 10:38:59 145.840 MHz, 145.915 MHz
FUNcube-1 25 Oct 11:11:22 11:15:15 33° 96° (E) 11:19:03 145.950 - 145.970 MHz USB
Oscar 11 25 Oct 11:12:05 11:16:26 80° 103° (ESE) 11:20:44 145.825 FM, Beacon 2401.500 USB
Sapphire 25 Oct 11:47:18 11:51:37 23° 38° (NE) 11:55:55 437.095 MHz 1200 baud AX-25 AFSK
ZACube-1 25 Oct 12:02:47 12:07:04 70° 286° (WNW) 12:11:13 437.345 MHz
KITSAT 1 25 Oct 12:05:07 12:12:15 36° 109° (ESE) 12:19:22 435.175 FM
UKube-1 25 Oct 12:07:27 12:11:14 29° 294° (WNW) 12:15:01 145.840 MHz, 145.915 MHz
PCSat 25 Oct 12:09:36 12:14:28 32° 44° (NE) 12:19:19 145.825 MHz
HO-68 25 Oct 12:14:52 12:20:48 29° 304° (NW) 12:26:44 435.675 MHz FM
SO-50 25 Oct 12:19:52 12:21:40 12° 108° (ESE) 12:23:28 436.795 FM
AO-Echo 25 Oct 12:36:02 12:36:49 10° 52° (NE) 12:37:37 ?
Oscar 16 25 Oct 12:41:26 12:45:20 22° 61° (ENE) 12:49:14 437.025 USB, Beacon 2401.1428
FUNcube-1 25 Oct 12:47:59 12:51:31 25° 295° (WNW) 12:54:59 145.950 - 145.970 MHz USB
Oscar 11 25 Oct 12:50:03 12:52:00 13° 301° (WNW) 12:53:57 145.825 FM, Beacon 2401.500 USB
Uribyol 2 25 Oct 13:02:52 13:06:04 17° 57° (ENE) 13:09:16 436.500 FM
ITAMSAT 1 25 Oct 13:08:51 13:12:12 18° 57° (ENE) 13:15:33 435.822 SSB
ISS 25 Oct 13:24:45 13:27:49 35° 143° (SE) 13:30:55 145.800 FM
Sapphire 25 Oct 13:30:14 13:35:42 82° 239° (WSW) 13:41:07 437.095 MHz 1200 baud AX-25 AFSK
Gurwin Techsat 1B 25 Oct 13:32:17 13:35:20 16° 56° (NE) 13:38:22 435.225 FM
Oscar 19 25 Oct 13:33:21 13:38:23 57° 70° (ENE) 13:43:25 437.125 CW, 437.150 USB
AO-7 25 Oct 13:39:38 13:42:52 13° 34° (NE) 13:46:05 29.400 - 29.500 MHz
JAS-1B 25 Oct 13:39:58 13:45:40 56° 69° (ENE) 13:51:13 435.800 - 435.900 CW/SSB
TMSAT-1 25 Oct 13:43:24 13:46:14 15° 55° (NE) 13:49:04 436.925 FM
Oscar 10/S400 25 Oct 13:52:17 14:07:45 27° 150° (SSE) 14:26:10 145.825 - 145.975 CW/USB, Beacon 145.810 USB
AO-27 25 Oct 13:52:47 13:57:34 39° 66° (ENE) 14:02:24 436.795 MHz FM
PCSat 25 Oct 13:52:52 13:58:08 52° 244° (WSW) 14:03:22 145.825 MHz
SO-50 25 Oct 13:56:55 14:01:27 89° 126° (SE) 14:06:08 436.795 FM
KITSAT 1 25 Oct 13:59:14 14:07:14 64° 311° (NW) 14:15:17 435.175 FM
AO-Echo 25 Oct 14:09:41 14:14:32 63° 72° (ENE) 14:19:35 ?
Oscar 16 25 Oct 14:19:13 14:24:18 58° 259° (W) 14:29:24 437.025 USB, Beacon 2401.1428
Uribyol 2 25 Oct 14:39:38 14:44:52 84° 256° (WSW) 14:50:09 436.500 FM
ITAMSAT 1 25 Oct 14:45:51 14:51:04 79° 256° (WSW) 14:56:20 435.822 SSB
Saudisat 1A 25 Oct 15:00:03 15:03:22 20° 34° (NE) 15:06:42 436.775 MHz
ISS 25 Oct 15:01:11 15:04:27 52° 342° (NNW) 15:07:44 145.800 FM
Gurwin Techsat 1B 25 Oct 15:09:14 15:14:33 89° 75° (ENE) 15:19:55 435.225 FM
Oscar 19 25 Oct 15:14:15 15:18:05 21° 268° (W) 15:21:56 437.125 CW, 437.150 USB
Sapphire 25 Oct 15:15:52 15:18:14 13° 257° (WSW) 15:20:36 437.095 MHz 1200 baud AX-25 AFSK
UOSAT-12 25 Oct 15:17:16 15:21:50 58° 122° (ESE) 15:26:29 437.025 FM, 437.400 FM
TMSAT-1 25 Oct 15:20:03 15:25:22 84° 74° (ENE) 15:30:43 436.925 FM
AO-7 25 Oct 15:25:53 15:33:30 43° 58° (ENE) 15:41:09 29.400 - 29.500 MHz
JAS-1B 25 Oct 15:32:26 15:36:50 22° 268° (W) 15:41:09 435.800 - 435.900 CW/SSB
AO-27 25 Oct 15:32:31 15:37:09 32° 264° (W) 15:41:49 436.795 MHz FM
SO-50 25 Oct 15:39:14 15:42:40 20° 328° (NNW) 15:46:10 436.795 FM
AO-Echo 25 Oct 15:50:26 15:53:47 18° 271° (W) 15:57:13 ?
Uosat F 25 Oct 15:55:45 16:00:09 32° 64° (ENE) 16:04:34 435.120 FM
KITSAT 1 25 Oct 15:57:55 16:04:22 25° 337° (NNW) 16:10:50 435.175 FM
Uribyol 2 25 Oct 16:23:14 16:25:08 12° 274° (W) 16:27:03 436.500 FM
JAS-2 25 Oct 16:24:37 16:29:20 23° 54° (NE) 16:34:27 435.800 - 435.900 CW/SSB, 435.910 FM
ITAMSAT 1 25 Oct 16:30:01 16:31:25 11° 274° (W) 16:32:48 435.822 SSB
ISS 25 Oct 16:38:28 16:41:34 34° 2° (N) 16:44:40 145.800 FM
Saudisat 1A 25 Oct 16:39:02 16:43:29 81° 235° (SW) 16:47:54 436.775 MHz
Hamsat 25 Oct 16:43:40 16:44:46 11° 58° (ENE) 16:45:53 145.90 MHz
Gurwin Techsat 1B 25 Oct 16:52:46 16:55:16 13° 273° (W) 16:57:46 435.225 FM
UOSAT-12 25 Oct 16:58:19 17:02:19 27° 322° (NW) 17:06:22 437.025 FM, 437.400 FM
TMSAT-1 25 Oct 17:03:11 17:05:59 14° 273° (W) 17:08:47 436.925 FM
AO-7 25 Oct 17:18:10 17:26:10 52° 259° (WSW) 17:34:14 29.400 - 29.500 MHz
Uosat F 25 Oct 17:34:12 17:38:51 37° 263° (W) 17:43:32 435.120 FM
OPAL 25 Oct 17:37:25 17:40:40 17° 93° (E) 17:43:54 ?
KITSAT 1 25 Oct 17:57:27 18:03:02 20° 7° (N) 18:08:37 435.175 FM
JAS-2 25 Oct 18:07:27 18:13:30 80° 257° (WSW) 18:20:27 435.800 - 435.900 CW/SSB, 435.910 FM
ISS 25 Oct 18:15:17 18:18:37 66° 22° (NNE) 18:21:57 145.800 FM
Hamsat 25 Oct 18:15:51 18:20:03 90° 82° (E) 18:24:16 145.90 MHz
Saudisat 1A 25 Oct 18:21:32 18:22:17 10° 252° (WSW) 18:23:02 436.775 MHz
UOSAT-12 25 Oct 18:43:10 18:44:05 11° 346° (NNW) 18:45:01 437.025 FM, 437.400 FM
SO-67 25 Oct 18:58:01 19:01:05 31° 70° (ENE) 19:04:11 435.3500 MHz FM
SO-50 25 Oct 19:06:14 19:07:55 12° 18° (NNE) 19:09:36 436.795 FM
HO-68 25 Oct 19:13:51 19:18:11 17° 47° (NE) 19:22:31 435.675 MHz FM
OPAL 25 Oct 19:15:05 19:20:02 65° 291° (WNW) 19:24:55 ?
STRAND 1 25 Oct 19:22:20 19:26:31 25° 93° (E) 19:30:41 ?
ISS 25 Oct 19:52:18 19:55:06 25° 220° (SW) 19:57:53 145.800 FM
KITSAT 1 25 Oct 19:53:55 20:01:13 35° 35° (NE) 20:08:29 435.175 FM
JAS-2 25 Oct 19:56:47 19:59:55 14° 279° (W) 20:03:14 435.800 - 435.900 CW/SSB, 435.910 FM
SO-67 25 Oct 20:31:46 20:34:09 18° 268° (W) 20:36:33 435.3500 MHz FM
Oscar 11 25 Oct 20:37:06 20:38:30 11° 58° (ENE) 20:39:54 145.825 FM, Beacon 2401.500 USB
SO-50 25 Oct 20:45:36 20:49:57 32° 41° (NE) 20:54:20 436.795 FM
OPAL 25 Oct 20:56:36 20:57:59 11° 310° (NW) 20:59:21 ?
HO-68 25 Oct 20:57:34 21:04:40 69° 68° (ENE) 21:11:49 435.675 MHz FM
STRAND 1 25 Oct 21:01:00 21:05:58 49° 291° (WNW) 21:10:53 ?
ZACube-1 25 Oct 21:27:09 21:30:07 17° 62° (ENE) 21:33:03 437.345 MHz
UKube-1 25 Oct 21:29:15 21:33:19 40° 68° (ENE) 21:37:24 145.840 MHz, 145.915 MHz
KITSAT 1 25 Oct 21:49:19 21:57:25 78° 239° (WSW) 22:05:28 435.175 FM
UOSAT-12 25 Oct 22:04:35 22:08:24 23° 35° (NE) 22:12:10 437.025 FM, 437.400 FM
RS-15 25 Oct 22:06:21 22:16:22 43° 110° (ESE) 22:26:19 29.354 - 29.394 USB, Beacon 29.352 USB
Oscar 11 25 Oct 22:09:40 22:14:00 88° 76° (ENE) 22:18:21 145.825 FM, Beacon 2401.500 USB
FUNcube-1 25 Oct 22:10:03 22:14:20 41° 70° (ENE) 22:18:34 145.950 - 145.970 MHz USB
SO-50 25 Oct 22:26:02 22:30:41 47° 240° (WSW) 22:35:21 436.795 FM
HO-68 25 Oct 22:47:09 22:52:57 26° 268° (W) 22:58:48 435.675 MHz FM
ZACube-1 25 Oct 23:01:32 23:06:04 62° 259° (W) 23:10:33 437.345 MHz
UKube-1 25 Oct 23:06:12 23:09:39 23° 266° (W) 23:13:07 145.840 MHz, 145.915 MHz
MaSat-1 25 Oct 23:41:21 23:44:47 27° 111° (ESE) 23:47:57 437.345 MHz
UOSAT-12 25 Oct 23:44:19 23:49:03 74° 236° (SW) 23:53:42 437.025 FM, 437.400 FM
KITSAT 1 25 Oct 23:46:35 23:51:32 18° 259° (W) 23:56:28 435.175 FM
FUNcube-1 25 Oct 23:47:11 23:50:51 23° 267° (W) 23:54:29 145.950 - 145.970 MHz USB
RS-15 26 Oct 00:17:22 00:28:14 65° 315° (NW) 00:39:12 29.354 - 29.394 USB, Beacon 29.352 USB
MaSat-1 26 Oct 01:16:49 01:20:20 30° 306° (NW) 01:23:32 437.345 MHz
JAS-1B 26 Oct 01:20:52 01:24:08 14° 87° (E) 01:27:36 435.800 - 435.900 CW/SSB
UOSAT-12 26 Oct 01:27:56 01:28:19 10° 254° (WSW) 01:28:43 437.025 FM, 437.400 FM
Oscar 19 26 Oct 01:43:17 01:46:20 16° 89° (E) 01:49:22 437.125 CW, 437.150 USB
AO-27 26 Oct 02:06:12 02:06:36 10° 85° (E) 02:07:01 436.795 MHz FM
AO-Echo 26 Oct 02:14:50 02:18:24 18° 89° (E) 02:21:56 ?
Oscar 16 26 Oct 02:28:00 02:32:49 39° 98° (E) 02:37:36 437.025 USB, Beacon 2401.1428
